QPF
0.00 0.01 0.01 0.00 0.01 0.00 0.00 0.00 0.00 0.00 0.00 0.01 0.01 0.01 0.02 0.03 0.02 0.00 0.00 0.00 0.00 0.00 0.00 0.00 0.00 0.00 0.00 0.00 0.01 0.01 0.01 0.00 0.00 0.00 0.00 0.00 0.00 0.00 0.00 0.00 0.00 0.00 0.00 0.00 0.00 0.00 0.00 0.00 0.00 0.00 0.00 0.00 0.00 0.00 0.00 0.00 0.00 0.00 0.00 0.00 0.00 0.00 0.00 0.00 -0.00 0.00 0.00 0.00 0.00 0.00 0.00 0.00 0.00 0.00
0.00 0.00 0.00 0.00 0.00 0.00 0.00 0.01 0.00 0.01 0.01 0.01 0.01 0.01 0.01 0.01 0.04 0.01 0.00 0.00 0.00 0.00 0.00 0.00 0.00 0.03 0.03 0.02 0.02 0.01 0.00 0.00 0.00 0.00 0.00 0.00 0.00 0.00 0.00 0.00 0.00 0.00 0.00 0.00 0.00 0.00 0.00 0.00 0.00 0.00 0.00 0.00 0.00 0.00 0.00 0.00 0.00 0.00 0.00 0.00 0.00 0.00 0.00 0.00 0.00 -0.00 0.00 0.00 -0.00 0.00 -0.00 0.00 -0.00 0.00
0.00 0.00 0.00 0.00 0.00 0.00 0.01 0.01 0.01 0.00 0.01 0.01 0.00 0.01 0.01 0.01 0.02 0.03 0.03 0.00 0.00 0.00 0.00 0.00 0.02 0.03 0.01 0.01 0.02 0.02 0.01 0.00 0.00 0.00 0.00 0.00 0.00 0.00 0.00 0.00 0.00 0.00 0.00 0.00 0.00 0.00 0.00 0.00 0.00 0.00 0.00 0.00 0.00 0.00 0.00 0.00 0.00 0.00 0.00 0.00 0.00 0.00 0.00 0.00 0.00 0.00 0.00 0.00 0.00 0.00 -0.00 -0.00 0.00 0.00
0.00 0.00 0.00 0.00 0.00 0.00 0.01 0.01 0.01 0.01 0.01 0.00 0.00 0.00 0.00 0.01 0.00 0.02 0.04 0.02 0.00 0.00 0.00 0.01 0.01 0.00 0.02 0.01 0.00 0.00 0.01 0.01 0.00 0.00 0.00 0.00 0.00 0.00 0.00 0.00 0.00 0.00 0.00 0.00 0.00 0.00 0.00 0.00 0.00 0.00 0.00 0.00 0.00 0.00 0.00 0.00 0.00 0.00 0.00 0.00 0.00 0.00 0.00 0.00 0.00 0.00 0.00 0.00 -0.00 -0.00 -0.00 0.00 0.00 0.00
-0.00 0.00 0.00 0.00 0.00 0.00 0.01 0.02 0.01 0.01 0.00 0.00 0.01 0.01 0.01 0.01 0.00 0.01 0.02 0.05 0.01 0.00 0.00 0.01 0.01 0.01 0.01 0.01 0.00 0.01 0.01 0.00 0.01 0.00 0.00 0.00 0.00 0.00 0.00 0.00 0.00 0.00 0.00 0.00 0.00 0.00 0.00 0.00 0.00 0.00 0.00 0.00 0.00 0.00 0.00 0.00 0.00 0.00 0.00 0.00 0.00 0.00 0.00 0.00 0.00 0.00 0.00 0.00 0.00 0.00 -0.00 -0.00 0.00 -0.00
0.00 0.00 0.00 0.00 0.00 0.01 0.02 0.01 0.00 0.00 0.00 0.01 0.01 0.01 0.00 0.01 0.01 0.01 0.02 0.01 0.03 0.01 0.00 0.00 0.01 0.01 0.01 0.01 0.01 0.02 0.01 0.01 0.00 0.00 0.00 0.00 0.00 0.00 0.00 0.00 0.00 0.00 0.00 0.00 0.00 0.00 0.00 0.00 0.00 0.00 0.00 0.00 0.00 0.00 0.00 0.00 0.00 0.00 0.00 0.00 0.00 0.00 0.00 0.00 0.00 0.00 0.00 0.00 0.00 0.00 0.00 0.00 0.00 0.00
0.00 0.00 0.00 0.00 0.00 0.00 0.01 0.00 0.00 0.00 0.00 0.01 0.00 0.01 0.00 0.01 0.01 0.00 0.01 0.01 0.03 0.03 0.01 0.00 0.00 0.00 0.01 0.01 0.01 0.01 0.01 0.00 0.00 0.01 0.01 0.00 0.01 0.00 0.00 0.00 0.00 0.00 0.00 0.00 0.00 0.00 0.00 0.00 0.00 0.00 0.00 0.00 0.00 0.00 0.00 0.00 0.00 0.00 0.00 0.00 0.00 0.00 0.00 0.00 0.00 0.00 0.00 0.00 0.00 0.00 0.00 0.00 -0.00 0.00
-0.00 0.00 0.00 0.00 0.00 0.00 0.00 0.00 0.00 0.00 0.01 0.02 0.01 0.00 0.01 0.00 0.00 0.00 0.01 0.00 0.02 0.03 0.03 0.00 0.00 0.00 0.00 0.00 0.01 0.00 0.01 0.01 0.01 0.01 0.00 0.00 0.00 0.00 0.00 0.00 0.01 0.01 0.00 0.00 0.00 0.00 0.00 0.00 0.00 0.00 0.00 0.00 0.00 0.00 0.00 0.00 0.00 0.00 0.00 0.00 0.00 0.00 0.00 0.00 0.00 0.00 0.00 0.00 0.00 0.00 0.00 0.00 0.00 0.00
0.00 0.00 0.00 0.00 0.00 0.00 0.00 0.00 0.00 0.00 0.01 0.01 0.01 0.01 0.01 0.00 0.00 0.00 0.01 0.00 0.00 0.01 0.04 0.02 0.00 0.00 0.01 0.01 0.01 0.00 0.01 0.01 0.01 0.01 0.00 0.00 0.01 0.00 0.00 0.01 0.01 0.01 0.00 0.00 0.00 0.00 0.00 0.00 0.00 0.00 0.00 0.00 0.00 0.00 0.00 0.00 0.00 0.00 0.00 0.00 0.00 0.00 0.00 0.00 0.00 0.00 0.00 0.00 0.00 0.00 0.00 0.00 0.00 -0.00
0.00 0.00 0.00 0.00 0.00 0.00 0.00 0.00 0.00 0.00 0.00 0.01 0.01 0.01 0.01 0.01 0.01 0.01 0.00 0.00 0.01 0.01 0.01 0.03 0.02 0.01 0.02 0.01 0.00 0.00 0.01 0.01 0.02 0.00 0.00 0.00 0.01 0.01 0.01 0.01 0.01 0.01 0.01 0.00 0.00 0.00 0.00 0.00 0.00 0.00 0.00 0.00 0.00 0.00 0.00 0.00 0.00 0.00 0.00 0.00 0.00 0.00 0.00 0.00 0.00 0.00 0.00 0.00 0.00 0.00 0.00 0.00 0.00 0.00
0.00 0.00 0.00 0.00 0.00 0.00 0.00 0.00 0.01 0.01 0.01 0.01 0.01 0.00 0.00 0.00 0.03 0.01 0.01 0.01 0.01 0.01 0.01 0.02 0.04 0.02 0.01 0.01 0.01 0.00 0.01 0.01 0.01 0.02 0.02 0.02 0.01 0.00 0.01 0.01 0.01 0.00 0.01 0.01 0.00 0.00 0.00 0.00 0.00 0.00 0.00 0.00 0.00 0.00 0.00 0.00 0.00 0.00 0.00 0.00 0.00 0.00 0.00 0.00 0.00 0.00 0.00 0.00 0.00 0.00 0.00 0.00 0.00 0.00
0.00 0.00 0.00 0.00 0.00 0.00 0.00 0.00 0.00 0.00 0.00 0.00 0.00 0.00 0.00 0.00 0.00 0.03 0.01 0.00 0.01 0.01 0.01 0.01 0.05 0.02 0.02 0.00 0.00 0.00 0.01 0.03 0.02 0.02 0.03 0.02 0.01 0.01 0.01 0.01 0.01 0.01 0.00 0.00 0.00 0.00 0.00 0.00 0.00 0.00 0.00 0.00 0.00 0.00 0.00 0.00 0.00 0.00 0.00 0.00 0.00 0.00 0.00 0.00 0.00 0.00 0.00 0.00 0.00 0.00 0.00 0.00 0.00 0.00
0.00 0.00 0.00 0.00 0.00 0.00 0.00 0.00 0.00 0.00 0.00 0.00 0.00 0.00 0.00 0.00 0.01 0.01 0.07 0.02 0.01 0.01 0.01 0.01 0.05 0.04 0.03 0.01 0.01 0.01 0.01 0.01 0.02 0.02 0.02 0.02 0.02 0.02 0.01 0.01 0.01 0.00 0.01 0.00 0.00 0.00 0.00 0.00 0.00 0.00 0.00 0.00 0.00 0.00 0.00 0.00 0.00 0.00 0.00 0.00 0.00 0.00 0.00 0.00 0.00 0.00 0.00 0.00 0.00 0.00 0.00 0.00 0.00 0.00
0.00 0.00 0.00 0.00 0.00 0.00 0.00 0.00 0.00 0.00 0.00 0.00 0.00 0.00 0.00 0.00 0.00 0.01 0.01 0.01 0.01 0.02 0.03 0.05 0.03 0.05 0.07 0.01 0.01 0.01 0.01 0.01 0.01 0.02 0.05 0.03 0.03 0.01 0.02 0.01 0.01 0.01 0.01 0.01 0.00 0.00 0.00 0.00 0.00 0.00 0.00 0.00 0.00 0.00 0.00 0.00 0.00 0.00 0.00 0.00 0.00 0.00 0.00 0.00 0.00 0.00 0.00 0.00 0.00 0.00 0.00 0.00 0.00 0.00
0.00 0.00 0.00 0.00 0.01 0.02 0.01 0.02 0.00 0.00 0.00 0.00 0.00 0.00 0.00 0.00 0.00 0.00 0.00 0.01 0.01 0.01 0.02 0.05 0.03 0.02 0.04 0.01 0.01 0.01 0.01 0.02 0.02 0.04 0.02 0.02 0.03 0.04 0.06 0.03 0.01 0.01 0.01 0.01 0.00 0.00 0.00 0.00 -0.00 0.00 0.00 0.00 0.00 0.00 0.00 0.00 0.00 0.00 0.00 0.00 0.00 0.00 0.00 0.00 0.00 0.00 0.00 0.00 0.00 0.00 0.00 0.00 0.00 0.00
0.01 0.00 0.01 0.07 0.11 0.11 0.09 0.02 0.00 0.00 0.00 0.00 0.00 0.00 0.00 0.00 0.00 0.00 0.00 0.00 0.01 0.01 0.01 0.02 0.05 0.02 0.03 0.02 0.02 0.02 0.01 0.01 0.01 0.01 0.02 0.01 0.01 0.05 0.06 0.05 0.04 0.02 0.01 0.01 0.00 0.00 0.00 0.00 0.00 0.00 0.00 -0.00 0.00 0.00 0.00 0.00 0.00 0.00 -0.00 0.00 0.00 0.00 0.00 0.00 0.00 0.00 0.00 0.00 0.00 0.00 0.00 0.00 0.00 0.00
0.00 0.04 0.06 0.05 0.00 0.00 0.00 0.03 0.00 0.00 0.00 0.01 0.01 0.00 0.00 0.00 0.00 0.00 0.00 0.00 -0.00 0.00 0.00 0.01 0.01 0.00 0.01 0.02 0.11 0.02 0.03 0.01 0.01 0.03 0.03 0.03 0.04 0.04 0.02 0.06 0.03 0.01 0.00 0.00 0.00 0.00 0.00 0.00 0.00 0.00 -0.00 -0.00 0.00 0.00 0.00 0.00 0.00 0.00 0.00 0.00 0.00 0.00 0.00 0.00 0.00 0.00 0.00 0.00 0.00 0.00 0.00 0.00 0.00 0.00
0.00 0.00 0.01 0.00 0.00 0.03 0.06 0.01 0.01 0.03 0.02 0.05 0.06 0.04 0.01 0.01 0.01 0.00 0.00 0.00 0.00 0.00 0.00 0.00 0.00 0.00 0.00 0.03 0.04 0.02 0.01 0.03 0.03 0.02 0.04 0.02 0.04 0.03 0.03 0.04 0.00 -0.00 0.00 0.00 0.01 0.01 0.00 0.00 0.00 0.00 0.00 0.00 0.00 0.00 0.00 0.00 0.00 0.00 0.00 0.00 0.00 0.00 0.00 0.00 0.00 0.00 0.00 0.00 0.00 0.00 0.00 0.00 0.00 0.00
0.00 0.00 -0.00 0.00 0.00 0.00 0.01 0.00 0.00 0.00 0.00 0.00 0.00 0.00 0.00 0.01 0.00 0.01 0.01 0.01 0.07 0.03 0.04 0.02 0.01 0.01 0.01 0.02 0.03 0.01 0.01 0.01 0.01 0.01 0.03 0.04 0.04 0.03 0.01 0.00 0.00 -0.00 0.00 0.01 0.02 0.01 0.00 0.00 0.00 0.00 0.00 0.00 0.00 0.00 0.00 0.00 0.00 0.00 0.00 0.00 0.00 0.00 0.00 0.00 0.00 0.00 0.00 0.00 0.00 0.00 0.00 0.00 0.00 0.00
0.00 0.00 0.00 0.00 0.00 0.00 0.00 0.00 0.00 0.00 0.00 -0.00 0.00 0.00 0.00 0.01 0.00 0.00 0.00 0.00 0.00 -0.00 0.00 0.00 0.00 0.00 0.00 0.00 0.00 0.00 0.00 0.00 0.00 0.00 0.00 0.01 0.01 0.02 0.01 0.00 0.00 0.00 0.00 0.00 0.00 0.00 0.00 0.00 0.00 0.00 0.00 0.00 0.00 0.00 0.00 0.00 0.00 0.00 0.00 0.00 0.00 0.00 0.00 0.00 0.00 0.00 0.00 0.00 0.00 0.00 0.00 0.00 0.00 0.00
0.00 0.00 0.00 0.00 0.00 0.00 0.00 0.00 0.00 0.00 -0.00 -0.00 0.00 0.01 0.01 0.01 0.01 0.00 0.00 0.00 0.00 0.00 0.00 0.00 0.00 0.00 0.00 0.00 -0.00 0.00 0.00 -0.00 0.02 0.02 0.03 0.01 0.00 0.00 0.01 0.00 0.00 0.00 0.00 0.00 0.00 0.00 0.01 0.01 0.00 0.00 0.00 0.00 0.00 0.00 0.00 0.00 0.00 0.00 0.00 0.00 0.00 0.00 0.00 0.00 0.00 0.00 0.00 0.00 0.00 0.00 0.00 0.00 0.00 0.00
0.00 0.00 0.00 0.00 0.00 0.00 0.00 0.00 0.00 0.00 0.00 0.00 0.00 0.00 0.00 0.01 0.00 0.00 0.00 0.00 0.02 0.00 0.00 0.00 0.00 0.00 0.00 0.00 0.00 0.00 0.00 0.00 0.00 0.02 0.03 0.00 0.00 0.01 0.00 0.00 0.00 0.00 0.00 -0.00 0.00 0.04 0.01 0.00 0.00 0.01 0.00 0.00 0.00 0.00 0.00 -0.00 -0.00 0.00 0.00 0.00 0.00 0.00 0.00 0.00 0.00 0.00 0.00 0.00 0.00 0.00 0.00 0.00 0.00 0.00
0.00 0.00 0.00 0.00 0.00 -0.00 0.00 0.00 0.00 0.00 0.01 0.00 0.00 0.00 0.00 0.00 0.00 0.00 0.00 0.00 -0.00 0.00 0.00 0.00 0.00 0.00 0.00 0.00 0.01 0.01 0.00 0.00 0.00 0.00 0.03 0.01 0.00 0.00 0.00 0.00 0.00 0.00 0.00 0.00 0.00 0.01 0.03 0.01 0.01 0.01 0.01 0.02 0.01 0.00 0.00 0.00 0.00 0.01 0.00 0.00 0.00 0.00 0.00 0.00 0.00 0.00 0.00 0.00 0.00 0.00 0.00 0.00 0.00 0.00
0.00 0.00 0.00 0.00 0.00 0.00 0.00 0.00 0.00 0.00 0.02 0.00 0.00 0.00 0.00 0.00 0.00 0.00 0.00 -0.00 0.00 0.00 0.00 0.00 0.00 0.00 0.00 0.00 0.00 0.00 0.00 0.00 0.00 0.00 0.00 0.00 0.00 0.00 0.00 0.00 0.00 0.00 0.00 0.00 0.00 0.01 0.04 0.06 0.03 0.00 0.04 0.05 0.07 0.05 0.00 0.00 0.00 0.00 0.01 0.02 0.02 0.00 0.00 0.00 0.00 0.00 0.00 0.00 0.00 0.00 0.00 0.00 0.00 0.00
0.00 0.00 0.00 0.00 0.00 0.00 0.00 0.00 0.00 0.00 0.00 0.00 0.00 0.00 0.00 0.00 0.00 0.00 -0.00 -0.00 0.00 0.00 0.00 0.00 0.00 0.00 0.00 0.00 -0.00 0.00 0.00 -0.00 0.00 0.00 -0.00 0.00 0.00 0.00 0.00 0.00 0.00 0.00 0.00 0.00 -0.00 0.01 0.01 0.03 0.05 0.05 0.03 0.05 0.04 0.03 0.02 0.00 0.00 0.00 0.01 0.02 0.03 0.01 0.01 0.02 0.01 0.00 0.00 0.00 0.00 0.00 0.00 0.00 0.00 0.00
0.00 0.00 0.00 0.00 0.00 0.00 0.00 0.00 0.00 0.00 0.00 0.00 0.00 0.00 0.00 0.00 0.00 0.00 -0.00 0.00 0.00 0.00 0.00 0.00 0.00 0.00 0.00 0.00 0.00 0.00 0.00 0.00 0.00 0.00 0.00 0.00 0.00 -0.00 0.00 0.00 0.01 0.01 0.00 0.00 0.00 0.00 0.01 0.01 0.03 0.04 0.05 0.07 0.06 0.03 0.03 0.01 0.00 0.00 0.01 0.02 0.04 0.06 0.04 0.03 0.03 0.02 0.00 0.00 0.00 0.00 0.00 0.00 0.00 0.00
0.00 0.00 0.00 0.00 0.00 0.00 0.00 0.00 0.00 0.00 0.00 0.00 0.00 0.00 0.00 0.00 0.00 0.00 0.00 0.00 0.00 0.00 0.00 0.00 0.00 0.00 0.00 0.00 0.00 0.00 0.00 0.00 0.00 -0.00 0.00 0.00 0.00 -0.00 0.00 0.00 0.00 0.00 0.00 0.00 0.00 0.00 0.01 0.02 0.02 0.05 0.10 0.10 0.11 0.05 0.03 0.02 0.01 0.02 0.14 0.19 0.17 0.09 0.07 0.07 0.03 0.03 0.01 0.00 0.00 0.00 0.00 0.00 0.00 0.00
0.00 0.00 0.00 0.00 0.00 0.00 0.00 0.00 0.00 0.00 0.00 0.00 0.00 0.00 0.00 0.00 0.00 0.00 0.00 0.00 0.00 0.00 0.00 0.00 -0.00 0.00 0.00 0.00 0.00 0.00 0.00 0.00 0.00 0.00 -0.00 0.00 0.00 0.00 0.00 0.00 0.00 0.00 0.00 0.00 0.00 0.00 0.01 0.02 0.03 0.04 0.05 0.10 0.15 0.14 0.08 0.01 0.02 0.04 0.08 0.06 0.28 0.10 0.06 0.02 0.06 0.03 0.02 0.00 0.00 0.00 0.00 0.00 0.00 0.00
0.00 0.00 0.00 0.00 0.00 0.00 0.00 0.00 0.00 0.00 0.00 0.00 0.00 0.00 0.00 0.00 0.00 0.00 0.00 0.00 0.00 0.00 0.00 0.00 0.00 0.00 0.00 0.00 0.00 0.00 0.00 -0.00 0.00 -0.00 0.00 0.00 0.00 -0.00 -0.00 0.00 0.00 0.00 0.00 -0.00 0.00 0.01 0.01 0.02 0.05 0.07 0.08 0.06 0.09 0.09 0.08 0.05 0.03 0.02 0.05 0.07 0.17 0.24 0.12 0.13 0.12 0.15 0.05 0.01 0.01 0.00 0.00 0.00 0.00 0.00
0.00 0.00 0.00 0.00 0.00 0.00 0.00 0.00 0.00 0.00 0.00 0.00 0.00 0.00 0.00 0.00 0.00 0.00 0.00 0.00 0.00 0.00 0.00 0.00 0.00 0.00 0.00 0.00 0.00 0.00 0.00 -0.00 0.00 0.00 0.00 0.00 0.00 -0.00 0.00 0.00 0.00 0.00 0.00 0.00 0.00 0.01 0.01 0.05 0.09 0.12 0.12 0.07 0.03 0.06 0.05 0.08 0.07 0.02 0.02 0.04 0.09 0.23 0.65 0.59 0.22 0.29 0.19 0.05 0.01 0.00 0.00 0.00 0.00 0.00
0.00 0.00 0.00 0.00 -0.00 -0.00 0.00 0.00 0.00 0.00 0.00 0.00 0.00 0.00 0.00 0.00 0.00 0.00 0.00 0.00 0.00 0.00 0.00 0.00 0.00 0.00 0.00 0.00 0.00 0.00 0.00 0.00 -0.00 0.00 0.00 0.00 0.00 0.00 0.00 0.00 0.00 0.00 0.00 0.00 0.00 0.00 0.01 0.03 0.09 0.10 0.16 0.11 0.06 0.04 0.06 0.15 0.10 0.08 0.16 0.09 0.23 0.23 0.15 0.13 0.22 0.59 0.14 0.06 0.03 0.01 0.00 0.00 0.00 0.00
0.00 0.00 0.00 0.00 -0.00 0.00 0.00 0.00 0.00 0.00 0.00 0.00 0.00 0.00 0.00 0.00 0.00 0.00 0.00 0.00 0.00 0.00 0.00 0.00 0.00 0.00 0.00 0.00 0.00 0.00 0.00 0.00 0.00 0.00 0.00 -0.00 0.00 0.00 0.00 0.00 0.00 -0.00 0.00 0.00 -0.00 0.00 0.00 0.01 0.07 0.09 0.10 0.11 0.18 0.14 0.18 0.23 0.32 0.18 0.13 0.10 0.18 0.12 0.05 0.18 0.23 0.31 0.18 0.42 0.07 0.04 0.01 0.00 0.00 0.00
0.00 0.00 0.00 0.00 0.00 0.01 0.01 0.00 0.00 0.00 0.00 0.00 0.00 0.00 0.00 0.00 0.00 0.00 0.00 0.00 0.00 0.00 0.00 0.00 0.00 0.00 0.00 0.00 0.00 0.00 0.00 0.00 0.00 0.00 -0.00 0.00 0.00 0.00 0.00 0.00 0.00 0.00 0.00 0.00 0.00 0.00 0.00 0.00 0.03 0.08 0.10 0.11 0.17 0.23 0.11 0.06 0.06 0.02 0.01 0.03 0.03 0.02 0.08 0.14 0.16 0.15 0.39 0.59 0.33 0.06 0.04 0.01 0.00 0.00
0.00 0.00 0.00 0.01 0.01 0.01 0.01 0.00 0.00 0.00 0.00 0.00 0.00 0.00 0.00 0.00 0.00 0.00 0.00 0.00 0.00 0.00 0.00 0.00 0.00 0.00 0.00 0.00 0.00 0.00 0.00 0.00 0.00 0.00 0.00 0.00 0.00 0.00 0.00 0.00 0.00 0.00 0.00 0.00 0.00 0.00 0.00 0.00 0.01 0.04 0.08 0.09 0.10 0.16 0.11 0.05 0.03 0.01 0.01 0.01 0.06 0.05 0.19 0.18 0.13 0.06 0.29 0.29 0.27 0.28 0.09 0.02 0.01 0.00
0.00 0.00 0.01 0.00 0.00 0.00 0.00 0.00 0.00 0.00 0.00 0.00 0.00 0.00 0.00 0.00 0.00 0.00 0.00 0.00 0.00 0.00 0.00 0.00 0.00 0.00 0.00 0.00 0.00 0.00 0.00 0.00 0.00 0.00 0.00 0.00 0.00 0.00 0.00 0.00 0.00 0.00 0.00 0.00 0.00 0.00 0.00 0.02 0.06 0.05 0.06 0.10 0.13 0.10 0.07 0.04 0.04 0.01 0.01 0.66 0.02 0.19 0.26 0.35 0.16 0.13 0.19 0.08 0.12 0.12 0.28 0.12 0.01 0.01
0.00 0.00 0.00 0.00 0.00 0.00 0.00 0.00 0.00 0.00 0.00 0.00 0.00 0.00 0.00 0.00 0.00 0.00 0.00 0.00 0.00 0.00 0.00 0.00 0.00 0.00 0.00 0.00 0.00 0.00 0.00 0.00 0.00 0.00 0.00 0.00 0.00 -0.00 -0.00 0.00 0.00 0.00 0.00 0.00 0.00 0.00 0.01 0.03 0.06 0.08 0.12 0.13 0.09 0.05 0.06 0.03 0.02 0.04 0.09 0.43 0.25 0.12 0.34 0.26 0.20 0.17 0.23 0.15 0.08 0.13 0.05 0.01 0.01 0.01
0.00 0.00 0.00 0.00 0.00 0.00 0.00 0.00 0.00 0.00 0.00 0.00 0.00 0.00 0.00 0.00 0.00 0.00 0.00 0.00 0.00 0.00 0.00 0.00 0.00 0.00 0.00 0.00 0.00 0.00 0.00 0.00 0.00 0.00 0.00 0.00 -0.00 0.00 -0.00 0.00 0.00 0.00 0.00 0.00 0.00 0.00 0.02 0.03 0.04 0.07 0.08 0.07 0.07 0.10 0.05 0.02 0.03 0.05 0.05 0.06 0.07 0.07 0.18 0.26 0.21 0.25 0.15 0.14 0.04 0.07 0.04 0.04 0.02 0.00
0.00 0.00 0.00 0.00 0.00 0.00 0.00 0.00 0.00 0.00 0.00 0.00 0.00 0.00 0.00 0.00 0.00 0.00 0.00 0.00 0.00 0.00 0.00 0.00 0.00 0.00 0.00 0.00 0.00 0.00 0.00 0.00 0.00 0.00 0.00 0.00 0.00 -0.00 -0.00 0.00 0.00 0.00 0.00 0.00 0.00 0.00 0.01 0.02 0.03 0.04 0.07 0.12 0.08 0.06 0.05 0.03 0.03 0.05 0.04 0.03 0.05 0.06 0.04 0.10 0.18 0.12 0.19 0.20 0.12 0.10 0.10 0.04 0.04 0.03
0.00 0.00 0.00 0.00 0.00 0.00 0.00 0.00 0.00 0.00 0.00 0.00 0.00 0.00 0.00 0.00 0.00 0.00 0.00 0.00 0.00 0.00 0.00 0.00 0.00 0.00 0.00 0.00 0.00 0.00 0.00 0.00 0.00 0.00 0.00 0.00 0.00 -0.00 0.00 0.00 0.00 0.00 0.00 0.00 0.00 0.00 0.01 0.01 0.01 0.03 0.07 0.08 0.09 0.11 0.14 0.13 0.08 0.06 0.22 0.17 0.10 0.05 0.06 0.11 0.15 0.25 0.17 0.14 0.17 0.30 0.23 0.10 0.12 0.14
0.00 0.00 0.00 0.00 0.00 0.00 0.00 0.00 0.00 0.00 0.00 0.00 0.00 0.00 0.00 0.00 0.00 0.00 0.00 0.00 0.00 0.00 0.00 0.00 0.00 0.00 0.00 0.00 0.00 0.00 0.00 0.00 0.00 0.00 0.00 0.00 0.00 0.00 0.00 0.00 0.00 0.00 0.00 0.00 0.00 0.00 0.01 0.01 0.02 0.04 0.08 0.06 0.09 0.07 0.10 0.09 0.12 0.04 0.04 0.08 0.16 0.22 0.17 0.25 0.44 0.43 0.24 0.18 0.12 0.14 0.20 0.12 0.10 0.11
0.00 0.00 0.00 0.00 0.00 0.00 0.00 0.00 0.00 0.00 0.00 0.00 0.00 0.00 0.00 0.00 0.00 0.00 0.00 0.00 0.00 0.00 0.00 0.00 0.00 0.00 0.00 0.00 0.00 0.00 0.00 0.00 0.00 0.00 0.00 0.00 0.00 0.00 -0.00 0.00 0.00 0.00 0.00 0.00 0.00 0.00 0.00 0.01 0.02 0.02 0.04 0.05 0.04 0.06 0.04 0.02 0.03 0.04 0.05 0.05 0.05 0.10 0.24 0.36 0.47 0.62 0.69 0.84 0.63 0.13 0.08 0.15 0.22 0.11
0.00 0.00 0.00 0.00 0.00 0.00 0.00 0.00 0.00 0.00 0.00 0.00 0.00 0.00 0.00 0.00 0.00 0.00 0.00 0.00 0.00 0.00 0.00 0.00 0.00 0.00 0.00 0.00 0.00 0.00 0.00 0.00 0.00 0.00 0.00 0.00 0.00 -0.00 0.00 0.00 -0.00 -0.00 0.00 0.00 0.00 0.00 0.00 0.01 0.02 0.02 0.03 0.03 0.04 0.05 0.04 0.05 0.06 0.11 0.10 0.08 0.08 0.08 0.13 0.26 0.42 0.45 0.47 0.71 0.87 0.52 0.29 0.93 0.54 0.23
0.00 0.00 0.00 0.00 0.00 0.00 0.00 0.00 0.00 0.00 0.00 0.00 0.00 0.00 0.00 0.00 0.00 0.00 0.00 0.00 0.00 0.00 0.00 0.00 0.00 0.00 0.00 0.00 0.00 0.00 0.00 0.00 0.00 0.00 0.00 0.00 0.00 0.00 0.00 0.00 0.00 0.00 -0.00 0.00 0.00 0.00 0.00 0.00 0.01 0.02 0.02 0.03 0.05 0.08 0.08 0.07 0.07 0.07 0.07 0.08 0.10 0.09 0.10 0.17 0.27 0.39 0.40 0.33 0.41 0.71 0.40 0.16 0.20 0.61
0.00 0.00 0.00 0.00 0.00 0.00 0.00 0.00 0.00 0.00 0.00 0.00 0.00 0.00 0.00 0.00 0.00 0.00 0.00 0.00 0.00 0.00 0.00 0.00 0.00 0.00 0.00 0.00 0.00 0.00 0.00 0.00 0.00 0.00 0.00 0.00 0.00 0.00 0.00 0.00 0.00 0.00 0.00 0.00 0.00 0.00 0.00 0.00 0.01 0.02 0.03 0.04 0.05 0.07 0.10 0.12 0.11 0.14 0.15 0.12 0.11 0.08 0.09 0.13 0.19 0.28 0.28 0.22 0.19 0.24 0.27 0.39 0.41 1.19
0.00 0.00 0.00 0.00 0.00 0.00 0.00 0.00 0.00 0.00 0.00 0.00 0.00 0.00 0.00 0.00 0.00 0.00 0.00 0.00 0.00 0.00 0.00 0.00 0.00 0.00 0.00 0.00 0.00 0.00 0.00 0.00 0.00 0.00 0.00 0.00 0.00 0.00 0.00 0.00 0.00 0.00 0.00 -0.00 -0.00 0.00 0.00 0.00 0.01 0.05 0.05 0.04 0.05 0.06 0.09 0.12 0.16 0.17 0.18 0.12 0.12 0.14 0.13 0.13 0.16 0.22 0.26 0.20 0.20 0.21 0.19 0.18 0.29 0.35
MSLP
1018.61 1018.65 1018.85 1018.97 1018.93 1018.85 1018.61 1018.53 1018.45 1018.45 1018.49 1018.49 1018.57 1018.69 1019.13 1019.33 1020.01 1020.01 1019.65 1019.13 1018.77 1017.77 1017.29 1017.97 1017.33 1017.17 1017.57 1017.73 1017.57 1017.69 1017.53 1017.33 1017.33 1017.17 1017.05 1016.93 1016.85 1016.81 1017.01 1017.13 1017.21 1017.21 1017.21 1017.17 1017.13 1017.09 1017.05 1016.97 1016.93 1016.89 1016.81 1016.77 1016.73 1016.65 1016.57 1016.49 1016.41 1016.33 1016.25 1016.17 1016.09 1015.97 1015.85 1015.69 1015.53 1015.41 1015.25 1015.13 1014.97 1014.85 1014.77 1014.73 1014.77 1014.81
1018.61 1018.61 1018.57 1018.57 1018.73 1018.49 1018.45 1018.29 1018.21 1018.33 1018.45 1018.45 1018.45 1018.41 1018.41 1018.61 1019.45 1019.45 1019.73 1019.17 1018.37 1018.09 1017.33 1017.09 1017.21 1017.05 1017.41 1017.37 1017.41 1017.37 1017.29 1017.13 1017.21 1017.05 1016.85 1016.69 1016.45 1016.49 1016.69 1016.77 1016.77 1016.77 1016.77 1016.73 1016.69 1016.65 1016.57 1016.57 1016.53 1016.49 1016.41 1016.33 1016.25 1016.21 1016.13 1016.09 1015.97 1015.89 1015.81 1015.73 1015.65 1015.53 1015.45 1015.33 1015.17 1015.05 1014.93 1014.81 1014.69 1014.57 1014.45 1014.37 1014.37 1014.37
1018.45 1018.57 1018.65 1018.49 1018.49 1018.29 1018.25 1018.17 1018.21 1018.17 1018.17 1018.25 1018.17 1018.13 1018.09 1018.33 1018.57 1018.93 1019.17 1019.41 1017.85 1017.53 1018.01 1017.33 1016.85 1017.01 1016.97 1016.89 1016.93 1016.93 1016.85 1016.77 1016.81 1016.77 1016.61 1016.41 1016.29 1016.33 1016.21 1016.21 1016.25 1016.25 1016.21 1016.21 1016.21 1016.17 1016.13 1016.09 1016.09 1016.05 1016.01 1015.93 1015.81 1015.77 1015.69 1015.61 1015.53 1015.45 1015.33 1015.25 1015.17 1015.05 1014.97 1014.89 1014.81 1014.65 1014.53 1014.41 1014.29 1014.25 1014.13 1014.05 1013.97 1013.93
1018.21 1018.45 1018.57 1018.45 1018.41 1018.21 1018.17 1018.21 1018.13 1018.13 1018.05 1017.97 1017.97 1017.97 1017.97 1018.05 1018.13 1018.41 1018.81 1019.13 1018.57 1017.29 1017.29 1017.09 1016.81 1016.61 1016.69 1016.73 1016.89 1016.73 1016.57 1016.45 1016.57 1016.53 1016.41 1016.21 1016.13 1015.97 1015.65 1015.45 1015.49 1015.57 1015.61 1015.65 1015.69 1015.65 1015.65 1015.65 1015.65 1015.61 1015.57 1015.53 1015.41 1015.33 1015.25 1015.13 1015.05 1014.97 1014.89 1014.77 1014.69 1014.61 1014.49 1014.41 1014.33 1014.29 1014.17 1014.01 1013.89 1013.81 1013.73 1013.69 1013.57 1013.49
1018.13 1018.21 1018.33 1018.25 1018.09 1017.93 1018.13 1018.05 1018.01 1017.89 1017.81 1017.77 1017.85 1017.93 1018.01 1018.05 1017.97 1018.25 1018.57 1018.81 1018.49 1017.33 1016.61 1016.69 1016.61 1016.41 1016.41 1016.61 1016.45 1016.57 1016.45 1016.33 1016.09 1016.01 1015.89 1015.81 1015.73 1015.53 1015.29 1015.05 1014.89 1014.93 1015.01 1015.09 1015.13 1015.17 1015.17 1015.17 1015.13 1015.09 1015.09 1015.05 1014.97 1014.85 1014.77 1014.73 1014.61 1014.49 1014.37 1014.29 1014.17 1014.09 1013.97 1013.89 1013.77 1013.73 1013.69 1013.61 1013.49 1013.37 1013.29 1013.21 1013.17 1013.05
1018.05 1018.01 1018.13 1018.05 1017.89 1017.69 1017.89 1017.97 1017.89 1017.49 1017.49 1017.57 1017.69 1017.85 1017.93 1017.97 1017.93 1017.77 1018.29 1018.33 1018.41 1018.21 1016.97 1016.61 1016.13 1016.17 1016.01 1016.45 1015.89 1016.25 1016.29 1016.09 1015.81 1015.73 1015.57 1015.37 1015.25 1015.17 1014.93 1014.77 1014.41 1014.33 1014.45 1014.57 1014.65 1014.69 1014.69 1014.65 1014.61 1014.61 1014.57 1014.57 1014.57 1014.45 1014.29 1014.21 1014.09 1013.97 1013.81 1013.69 1013.57 1013.45 1013.33 1013.29 1013.21 1013.13 1013.05 1013.05 1013.01 1012.93 1012.81 1012.73 1012.69 1012.61
1017.81 1017.89 1017.89 1017.85 1017.77 1017.53 1017.65 1017.65 1017.49 1017.25 1017.37 1017.41 1017.65 1017.65 1017.53 1017.65 1017.57 1017.49 1017.53 1017.93 1018.09 1017.97 1017.57 1016.73 1016.41 1016.01 1015.73 1015.89 1015.81 1015.61 1015.57 1015.53 1015.45 1015.49 1015.33 1015.21 1014.89 1014.61 1014.45 1014.37 1014.09 1014.01 1014.13 1014.21 1014.21 1014.21 1014.21 1014.17 1014.13 1014.13 1014.09 1014.05 1014.01 1013.93 1013.81 1013.65 1013.53 1013.37 1013.21 1013.09 1012.97 1012.81 1012.69 1012.61 1012.53 1012.49 1012.41 1012.41 1012.37 1012.37 1012.33 1012.25 1012.13 1012.09
1017.53 1017.57 1017.69 1017.61 1017.45 1017.29 1017.33 1017.37 1017.33 1017.17 1017.25 1017.41 1017.49 1017.45 1017.37 1017.41 1017.33 1017.17 1017.09 1017.13 1017.41 1017.41 1017.53 1016.89 1016.65 1016.05 1015.85 1015.49 1015.17 1015.09 1015.09 1015.13 1015.09 1015.01 1014.85 1014.65 1014.57 1014.37 1014.17 1014.05 1013.93 1013.73 1013.73 1013.73 1013.73 1013.69 1013.61 1013.57 1013.53 1013.49 1013.49 1013.41 1013.33 1013.29 1013.21 1013.05 1012.89 1012.81 1012.69 1012.53 1012.37 1012.21 1012.09 1011.97 1011.89 1011.85 1011.77 1011.73 1011.73 1011.73 1011.73 1011.69 1011.65 1011.61
1017.21 1017.29 1017.33 1017.21 1017.17 1017.09 1017.25 1017.25 1017.21 1017.05 1017.29 1017.17 1017.13 1017.25 1017.09 1017.05 1016.93 1016.85 1016.81 1016.77 1016.77 1017.01 1017.09 1016.69 1016.13 1015.85 1015.69 1015.25 1015.05 1014.85 1014.97 1014.73 1014.61 1014.49 1014.53 1014.41 1014.29 1014.17 1013.89 1013.61 1013.37 1013.29 1013.25 1013.13 1013.05 1012.97 1012.85 1012.77 1012.77 1012.69 1012.69 1012.65 1012.57 1012.53 1012.45 1012.37 1012.21 1012.13 1012.01 1011.89 1011.77 1011.61 1011.49 1011.37 1011.25 1011.17 1011.13 1011.09 1011.09 1011.09 1011.09 1011.09 1011.09 1011.05
1016.81 1016.97 1017.05 1016.97 1016.89 1016.89 1017.01 1016.97 1016.93 1016.93 1016.97 1016.89 1016.93 1016.85 1016.81 1016.69 1016.65 1016.65 1016.57 1016.45 1016.49 1016.53 1016.53 1016.53 1016.21 1015.77 1015.77 1015.49 1015.13 1014.69 1014.57 1014.69 1014.57 1014.33 1014.05 1013.93 1013.89 1013.89 1013.73 1013.33 1012.97 1012.69 1012.61 1012.49 1012.33 1012.25 1012.21 1012.13 1012.09 1012.09 1012.09 1012.01 1011.89 1011.73 1011.61 1011.49 1011.41 1011.29 1011.21 1011.13 1011.05 1010.89 1010.77 1010.69 1010.61 1010.53 1010.49 1010.45 1010.45 1010.45 1010.45 1010.45 1010.49 1010.49
1016.45 1016.61 1016.69 1016.69 1016.65 1016.65 1016.57 1016.65 1016.69 1016.77 1016.77 1016.73 1016.69 1016.57 1016.45 1016.33 1016.45 1016.57 1016.49 1016.33 1016.29 1016.25 1016.21 1016.05 1015.89 1015.73 1015.37 1015.33 1015.33 1014.49 1014.09 1014.09 1014.25 1014.37 1014.29 1014.17 1013.61 1013.41 1013.37 1013.33 1012.81 1012.45 1012.21 1012.01 1012.01 1011.85 1011.65 1011.53 1011.45 1011.21 1011.09 1010.97 1010.93 1010.77 1010.61 1010.53 1010.57 1010.49 1010.29 1010.13 1010.09 1010.05 1009.97 1009.93 1009.93 1009.89 1009.85 1009.81 1009.81 1009.81 1009.85 1009.89 1009.89 1009.93
1016.17 1016.21 1016.13 1016.05 1015.93 1016.01 1016.13 1016.29 1016.33 1016.25 1016.33 1016.21 1016.29 1016.05 1016.09 1016.13 1016.29 1016.33 1016.17 1016.09 1015.97 1015.93 1015.89 1015.81 1015.69 1015.29 1015.29 1015.01 1014.65 1014.21 1014.05 1014.25 1014.13 1013.81 1013.89 1014.01 1013.69 1013.45 1013.09 1012.89 1012.85 1012.37 1012.13 1011.89 1011.45 1011.21 1011.05 1010.81 1010.65 1010.49 1010.37 1010.17 1009.97 1009.89 1009.89 1009.77 1009.65 1009.57 1009.45 1009.25 1009.13 1009.09 1009.09 1009.17 1009.17 1009.17 1009.17 1009.17 1009.17 1009.17 1009.21 1009.25 1009.25 1009.33
1015.89 1015.85 1015.73 1015.69 1015.69 1015.61 1015.69 1015.81 1015.93 1016.01 1016.13 1016.25 1016.29 1016.01 1015.89 1016.01 1016.09 1016.13 1016.21 1016.17 1015.81 1015.69 1015.65 1015.53 1015.33 1015.45 1015.37 1014.85 1014.81 1014.57 1014.41 1014.29 1014.09 1013.61 1013.45 1013.49 1013.29 1013.05 1012.97 1012.57 1012.21 1011.97 1011.81 1011.49 1011.21 1011.01 1010.81 1010.65 1010.37 1010.05 1009.77 1009.41 1009.33 1009.09 1009.01 1008.69 1008.53 1008.45 1008.45 1008.45 1008.41 1008.37 1008.37 1008.37 1008.41 1008.45 1008.45 1008.49 1008.49 1008.53 1008.57 1008.57 1008.65 1008.69
1015.65 1015.53 1015.41 1015.25 1015.33 1015.45 1015.45 1015.53 1015.81 1015.97 1016.05 1016.13 1016.09 1015.89 1015.73 1015.77 1015.85 1015.89 1016.01 1016.05 1015.81 1015.61 1015.57 1015.37 1015.29 1015.33 1014.97 1014.69 1014.49 1014.29 1013.85 1013.49 1013.37 1013.37 1013.45 1013.61 1013.17 1013.01 1012.77 1012.33 1011.93 1011.49 1011.37 1011.21 1011.13 1010.73 1010.41 1010.29 1009.85 1009.69 1009.45 1008.97 1008.89 1008.53 1008.13 1007.85 1007.57 1007.57 1007.69 1007.81 1007.81 1007.73 1007.65 1007.69 1007.73 1007.77 1007.77 1007.77 1007.77 1007.81 1007.89 1007.97 1008.01 1008.05
1015.77 1015.49 1015.29 1015.21 1015.25 1015.69 1015.65 1015.45 1015.49 1015.41 1015.61 1015.73 1015.81 1015.85 1015.85 1015.81 1015.89 1015.89 1015.89 1015.73 1015.53 1015.41 1015.21 1014.97 1015.01 1014.93 1014.85 1014.53 1014.17 1013.93 1013.49 1013.21 1013.29 1013.37 1013.29 1013.25 1013.17 1013.21 1013.17 1012.89 1011.89 1011.17 1011.13 1011.17 1010.89 1010.41 1010.09 1009.89 1009.65 1009.17 1008.97 1008.61 1008.17 1007.81 1007.41 1007.29 1007.29 1007.17 1007.05 1007.09 1007.13 1007.01 1006.89 1006.85 1006.85 1006.93 1007.01 1007.05 1007.09 1007.13 1007.21 1007.29 1007.45 1007.49
1015.61 1015.45 1015.29 1015.17 1015.21 1015.61 1015.81 1015.37 1015.17 1015.17 1015.25 1015.41 1015.53 1015.61 1015.61 1015.65 1015.57 1015.57 1015.61 1015.57 1015.41 1015.17 1015.01 1014.85 1014.65 1014.57 1014.57 1014.25 1013.93 1013.65 1013.45 1013.37 1013.29 1013.29 1013.21 1013.21 1013.17 1013.09 1013.05 1012.61 1012.37 1011.29 1010.89 1011.05 1010.81 1010.09 1009.69 1009.37 1009.13 1008.69 1008.33 1007.97 1007.53 1007.17 1007.01 1006.81 1006.61 1006.45 1006.37 1006.29 1006.29 1006.25 1006.13 1006.05 1006.01 1006.01 1006.13 1006.25 1006.29 1006.33 1006.41 1006.57 1006.73 1006.85
1015.49 1015.53 1015.37 1015.17 1015.09 1015.01 1015.21 1015.65 1015.45 1015.09 1015.01 1015.21 1015.45 1015.33 1015.29 1015.25 1015.09 1015.05 1015.17 1015.13 1014.93 1014.61 1014.65 1014.53 1014.33 1014.25 1014.01 1014.01 1013.73 1013.49 1013.45 1013.33 1013.49 1013.21 1013.25 1013.01 1012.85 1012.69 1012.65 1012.21 1011.61 1011.09 1010.89 1010.85 1010.41 1009.69 1009.21 1009.09 1008.69 1008.21 1007.65 1007.29 1006.77 1006.45 1006.21 1006.09 1005.97 1005.93 1005.81 1005.61 1005.49 1005.45 1005.37 1005.25 1005.21 1005.21 1005.21 1005.33 1005.45 1005.57 1005.65 1005.77 1005.97 1006.17
1015.25 1015.13 1015.09 1015.13 1015.13 1015.01 1015.09 1015.05 1015.09 1014.93 1014.85 1015.13 1015.53 1015.25 1014.77 1014.53 1014.25 1014.37 1014.53 1014.53 1014.57 1014.57 1014.41 1014.29 1014.33 1013.93 1013.81 1013.89 1013.49 1013.21 1013.21 1013.33 1013.37 1013.29 1013.17 1012.97 1012.65 1012.41 1012.17 1011.69 1011.41 1010.85 1010.57 1010.61 1010.13 1009.41 1008.93 1008.53 1008.05 1007.73 1006.81 1006.45 1006.21 1006.01 1005.77 1005.61 1005.45 1005.29 1005.09 1004.81 1004.61 1004.53 1004.49 1004.41 1004.33 1004.33 1004.33 1004.41 1004.53 1004.73 1004.89 1005.05 1005.25 1005.45
1014.77 1014.73 1014.73 1014.85 1014.93 1014.85 1014.77 1014.73 1014.77 1014.69 1014.77 1014.81 1014.69 1014.61 1014.45 1014.13 1014.01 1013.73 1013.65 1013.69 1013.89 1014.01 1013.97 1013.89 1013.65 1013.49 1013.33 1013.37 1013.37 1013.33 1013.17 1013.05 1012.93 1012.89 1012.89 1012.77 1012.49 1012.09 1011.61 1011.17 1010.69 1010.25 1009.77 1009.53 1009.49 1008.97 1008.09 1007.89 1007.53 1006.93 1006.49 1006.05 1005.89 1005.53 1005.13 1005.17 1004.89 1004.53 1004.29 1003.97 1003.69 1003.53 1003.49 1003.45 1003.37 1003.41 1003.45 1003.49 1003.65 1003.85 1004.05 1004.29 1004.53 1004.77
1014.29 1014.29 1014.37 1014.45 1014.57 1014.53 1014.45 1014.73 1014.85 1014.93 1014.85 1014.85 1014.77 1014.57 1014.33 1014.17 1013.89 1013.65 1013.33 1013.41 1013.41 1013.45 1013.45 1013.53 1013.57 1013.49 1013.49 1013.69 1013.65 1013.53 1013.41 1013.17 1012.97 1012.77 1012.45 1012.21 1012.09 1011.97 1011.69 1011.25 1010.33 1009.93 1009.01 1008.81 1008.81 1008.45 1007.85 1007.45 1007.17 1006.49 1006.05 1005.77 1005.33 1004.93 1004.77 1004.45 1004.29 1003.93 1003.53 1003.01 1002.65 1002.41 1002.33 1002.37 1002.33 1002.37 1002.49 1002.61 1002.77 1002.97 1003.25 1003.53 1003.81 1004.13
1013.77 1013.85 1013.93 1014.01 1014.13 1014.21 1014.29 1014.77 1014.97 1015.05 1015.09 1014.77 1014.61 1014.45 1014.33 1014.21 1013.97 1013.69 1013.21 1013.21 1013.21 1013.33 1013.57 1013.61 1013.65 1013.61 1013.53 1013.37 1013.25 1013.21 1013.21 1013.17 1012.97 1012.93 1012.85 1012.49 1011.81 1011.61 1011.37 1010.69 1010.13 1009.49 1008.85 1008.29 1008.33 1008.13 1007.81 1007.29 1007.05 1006.25 1005.77 1005.49 1005.13 1004.73 1004.41 1003.89 1003.45 1003.17 1002.61 1002.09 1001.65 1001.37 1001.25 1001.25 1001.33 1001.41 1001.53 1001.73 1001.93 1002.17 1002.49 1002.81 1003.17 1003.49
1013.53 1013.65 1013.73 1013.73 1013.81 1013.97 1014.29 1014.85 1014.97 1015.01 1015.05 1014.73 1014.49 1014.37 1014.29 1014.17 1014.09 1013.73 1013.25 1012.85 1012.89 1013.17 1013.29 1013.33 1013.29 1013.21 1013.05 1012.93 1012.81 1012.73 1012.65 1012.57 1012.73 1012.81 1012.69 1011.81 1011.41 1011.29 1010.89 1010.53 1009.77 1008.81 1008.49 1008.25 1008.01 1008.13 1007.85 1006.97 1006.73 1006.29 1005.49 1005.09 1004.65 1004.37 1004.01 1003.57 1002.97 1002.33 1001.61 1000.93 1000.57 1000.25 1000.17 1000.25 1000.37 1000.49 1000.65 1000.89 1001.13 1001.41 1001.73 1002.13 1002.61 1003.01
1013.69 1014.01 1014.13 1014.01 1013.77 1013.89 1014.37 1014.77 1014.93 1015.01 1014.93 1014.65 1014.37 1014.33 1014.33 1014.21 1014.13 1013.65 1013.17 1012.97 1012.81 1013.01 1013.09 1012.97 1012.77 1012.61 1012.49 1012.33 1012.13 1011.85 1011.81 1011.81 1011.89 1011.89 1011.69 1011.37 1011.21 1010.85 1010.41 1009.97 1009.49 1008.97 1008.17 1007.73 1007.73 1008.25 1007.53 1007.25 1006.49 1006.49 1005.89 1005.09 1003.73 1004.09 1003.65 1003.25 1002.53 1001.65 1000.89 1000.25 999.61 999.29 999.25 999.33 999.49 999.65 999.85 1000.09 1000.41 1000.73 1001.05 1001.45 1002.05 1002.21
1013.77 1013.73 1013.89 1014.25 1014.37 1014.41 1014.61 1014.85 1015.13 1015.17 1015.21 1014.85 1014.41 1014.17 1014.13 1014.13 1013.85 1013.41 1013.49 1013.69 1013.85 1013.69 1013.45 1013.13 1012.85 1012.57 1012.25 1011.97 1011.53 1011.17 1010.89 1010.89 1010.89 1010.69 1010.57 1010.45 1010.45 1010.33 1010.05 1009.61 1009.33 1008.85 1007.97 1007.45 1007.57 1007.85 1007.33 1007.17 1006.65 1006.29 1006.37 1006.33 1004.05 1002.93 1003.29 1002.49 1001.81 1001.05 1000.49 999.93 999.25 998.61 998.57 998.69 998.77 998.89 999.05 999.33 999.69 1000.01 1000.37 1000.81 1001.33 1001.49
1013.17 1013.37 1013.37 1013.77 1014.57 1014.73 1014.93 1015.13 1015.17 1015.21 1015.29 1015.21 1014.69 1014.29 1014.01 1014.21 1014.69 1014.73 1014.17 1013.89 1013.81 1013.57 1013.29 1012.97 1012.53 1012.05 1011.73 1011.45 1011.13 1010.85 1010.65 1010.45 1010.29 1010.21 1010.17 1010.13 1010.01 1009.93 1009.73 1009.37 1009.05 1008.49 1007.73 1007.37 1007.61 1007.89 1007.57 1007.09 1006.69 1006.21 1005.85 1005.81 1005.01 1003.53 1002.25 1002.37 1001.13 1000.65 999.97 999.49 998.89 998.13 997.93 997.73 997.77 997.81 998.17 998.53 998.85 999.29 999.69 1000.09 1000.61 1000.77
1012.85 1013.05 1013.25 1013.45 1014.49 1014.81 1015.09 1015.13 1015.25 1015.37 1015.45 1015.41 1014.85 1014.53 1014.77 1014.85 1014.89 1014.89 1014.49 1013.97 1013.45 1012.97 1012.81 1012.53 1012.33 1012.09 1011.81 1011.49 1011.21 1011.01 1010.81 1010.49 1010.29 1010.25 1010.25 1010.13 1010.01 1009.81 1009.57 1009.41 1009.17 1008.65 1007.77 1007.17 1007.45 1007.65 1007.45 1006.93 1006.53 1006.21 1005.65 1005.45 1004.09 1003.97 1002.57 1001.41 1000.77 999.93 999.37 998.77 998.29 997.81 997.97 997.69 997.29 997.01 996.93 997.41 997.97 998.53 998.89 999.45 999.97 1000.33
1012.65 1012.93 1013.13 1013.89 1014.57 1014.77 1015.09 1015.29 1015.45 1015.49 1015.53 1015.37 1014.93 1014.97 1015.01 1015.21 1015.25 1015.09 1014.25 1013.61 1013.29 1013.09 1012.81 1012.69 1012.53 1012.21 1011.81 1011.41 1011.05 1010.85 1010.85 1010.65 1010.57 1010.57 1010.41 1010.21 1009.93 1009.65 1009.33 1009.01 1008.69 1008.25 1007.53 1007.13 1006.89 1006.89 1006.93 1006.37 1005.85 1005.89 1005.45 1005.05 1004.41 1003.17 1002.69 1001.65 1000.05 999.29 998.93 998.49 998.05 997.61 997.41 997.33 997.01 996.37 996.13 996.25 996.73 997.37 998.29 998.89 999.37 999.73
1012.53 1012.73 1012.93 1013.69 1014.45 1014.85 1015.17 1015.41 1015.57 1015.61 1015.61 1015.09 1015.05 1015.13 1015.17 1015.13 1015.05 1014.57 1013.77 1013.25 1013.01 1012.97 1012.81 1012.61 1012.25 1011.77 1011.37 1011.29 1011.25 1011.09 1010.89 1010.85 1010.81 1010.69 1010.41 1010.05 1009.65 1009.33 1008.97 1008.61 1008.21 1007.77 1007.37 1007.01 1006.65 1006.41 1006.29 1005.97 1005.57 1005.37 1005.25 1004.73 1004.21 1003.45 1002.25 1000.93 1000.37 999.53 999.05 998.09 997.77 997.37 996.93 996.57 996.17 995.65 995.57 995.53 995.97 996.65 997.49 998.25 998.89 999.45
1013.01 1013.65 1014.01 1014.33 1014.69 1015.09 1015.37 1015.53 1015.61 1015.57 1015.29 1015.13 1015.05 1015.13 1015.01 1014.89 1014.21 1013.65 1013.21 1013.09 1013.05 1012.85 1012.57 1012.17 1011.89 1011.69 1011.53 1011.37 1011.21 1011.01 1010.97 1010.93 1010.73 1010.37 1009.97 1009.61 1009.33 1008.97 1008.53 1008.13 1007.77 1007.33 1007.01 1006.53 1006.21 1005.89 1005.69 1005.53 1005.29 1005.05 1004.85 1004.29 1003.73 1002.81 1002.25 1000.93 1000.05 999.33 998.85 998.49 997.85 996.85 996.41 995.89 995.57 995.69 995.33 995.13 995.45 995.85 996.45 997.17 998.05 998.57
1013.85 1014.01 1014.45 1014.77 1015.09 1015.37 1015.57 1015.33 1014.77 1014.09 1014.13 1014.73 1014.81 1014.73 1014.69 1014.13 1013.33 1013.09 1013.09 1012.97 1012.89 1012.69 1012.33 1012.13 1012.01 1011.73 1011.45 1011.29 1011.09 1011.09 1010.97 1010.77 1010.45 1010.13 1009.89 1009.57 1009.09 1008.65 1008.29 1007.93 1007.37 1006.97 1006.49 1006.09 1005.69 1005.37 1005.21 1005.09 1005.05 1004.85 1004.37 1003.61 1002.97 1002.25 1001.29 1000.57 999.57 998.73 998.21 997.85 997.21 996.49 995.89 995.57 995.29 995.17 995.21 995.05 995.21 995.49 995.85 996.25 996.89 997.61
1013.85 1014.49 1014.53 1014.53 1014.65 1014.33 1014.49 1014.53 1014.37 1014.13 1014.25 1014.29 1014.25 1013.97 1013.73 1013.29 1013.05 1013.01 1013.01 1012.93 1012.85 1012.69 1012.45 1012.21 1011.93 1011.69 1011.49 1011.29 1011.21 1010.97 1010.73 1010.49 1010.09 1009.85 1009.69 1009.37 1008.85 1008.53 1008.13 1007.81 1007.29 1006.69 1006.05 1005.53 1005.17 1005.01 1004.89 1004.73 1004.61 1004.53 1004.13 1003.09 1002.09 1001.25 1000.49 999.97 999.33 998.37 997.69 997.33 997.09 997.17 995.81 995.29 995.05 994.85 994.53 994.73 995.01 995.37 995.69 996.05 996.49 997.05
1013.17 1013.73 1014.21 1014.37 1014.13 1013.93 1013.93 1013.81 1013.69 1013.53 1013.57 1013.49 1013.29 1013.05 1012.97 1012.89 1012.85 1013.01 1013.09 1013.09 1012.77 1012.53 1012.33 1012.09 1011.97 1011.81 1011.61 1011.41 1011.05 1010.73 1010.45 1010.13 1009.93 1009.69 1009.49 1009.25 1008.89 1008.41 1007.93 1007.69 1007.21 1006.61 1005.97 1005.41 1005.13 1004.85 1004.61 1004.37 1004.25 1004.09 1003.61 1002.85 1001.81 1001.05 1000.33 999.69 999.37 998.93 998.13 997.37 996.89 996.21 995.65 995.45 995.09 994.85 994.77 995.01 995.33 995.53 995.65 995.81 996.17 996.57
1012.81 1013.29 1013.53 1013.37 1013.21 1013.33 1013.29 1012.93 1012.65 1012.53 1012.77 1012.93 1012.97 1013.17 1013.05 1012.65 1012.53 1012.37 1012.25 1012.21 1012.21 1012.13 1012.13 1012.09 1011.93 1011.73 1011.45 1011.21 1010.93 1010.61 1010.29 1010.05 1009.85 1009.49 1009.29 1009.05 1008.77 1008.29 1007.97 1007.61 1007.01 1006.53 1006.09 1005.57 1005.13 1004.61 1004.25 1004.01 1003.93 1003.69 1003.05 1002.09 1001.45 1001.21 1000.69 1000.01 999.37 998.89 998.45 997.69 997.21 996.49 995.73 995.25 994.97 994.89 994.89 995.37 995.41 995.45 995.57 995.53 995.61 995.85
1012.53 1012.61 1012.61 1012.45 1012.37 1012.45 1012.53 1012.33 1012.21 1012.09 1012.13 1012.33 1012.53 1012.33 1012.57 1012.69 1012.33 1012.29 1012.25 1012.13 1012.01 1012.05 1012.17 1012.05 1011.81 1011.57 1011.41 1011.17 1010.85 1010.53 1010.25 1009.93 1009.65 1009.37 1009.17 1008.77 1008.33 1008.05 1007.61 1007.21 1006.81 1006.45 1006.25 1005.85 1005.21 1004.77 1004.37 1004.13 1003.77 1003.09 1002.49 1001.69 1000.93 1000.69 1000.49 1000.21 999.65 999.05 998.61 998.17 997.61 996.85 995.93 995.33 995.01 994.77 994.73 995.05 995.17 995.53 995.53 995.49 995.37 995.33
1012.53 1012.29 1012.33 1012.29 1012.21 1012.25 1012.17 1012.05 1012.01 1012.25 1012.61 1012.53 1012.49 1012.37 1012.21 1012.09 1012.09 1012.13 1012.09 1012.01 1012.17 1012.21 1012.09 1011.89 1011.69 1011.49 1011.29 1011.09 1010.81 1010.53 1010.21 1009.93 1009.61 1009.09 1008.69 1008.37 1008.09 1007.81 1007.53 1007.25 1006.89 1006.57 1006.21 1005.73 1005.21 1004.81 1004.65 1004.29 1003.77 1003.09 1002.17 1001.41 1000.69 1000.21 1000.13 1000.09 999.77 999.21 998.65 998.25 997.77 997.13 996.33 995.69 995.29 994.73 994.61 994.89 994.93 995.29 995.53 995.57 995.37 994.97
1012.09 1011.97 1012.13 1012.09 1011.97 1011.89 1012.05 1011.97 1012.05 1012.33 1012.33 1012.33 1012.37 1012.37 1012.25 1012.09 1011.97 1012.13 1012.09 1012.37 1012.49 1012.29 1012.05 1011.73 1011.57 1011.45 1011.21 1010.97 1010.69 1010.45 1010.13 1009.89 1009.45 1009.01 1008.65 1008.25 1007.97 1007.69 1007.41 1007.13 1006.81 1006.41 1006.01 1005.61 1005.25 1004.85 1004.77 1004.45 1004.01 1003.53 1002.93 1001.97 1001.25 1000.53 999.93 999.77 999.61 999.41 999.05 998.81 998.09 997.29 996.57 996.01 995.45 994.85 994.57 994.69 994.69 994.85 995.17 995.37 995.33 994.93
1011.65 1011.53 1011.89 1011.97 1011.89 1012.05 1012.13 1011.97 1012.01 1012.17 1012.29 1012.41 1012.45 1012.25 1012.33 1012.25 1012.05 1012.09 1012.37 1012.69 1012.53 1012.21 1011.97 1011.89 1011.57 1011.25 1011.05 1010.85 1010.65 1010.33 1009.97 1009.73 1009.37 1009.01 1008.57 1008.13 1007.97 1007.89 1007.65 1007.05 1006.65 1006.21 1005.81 1005.49 1005.13 1004.89 1004.85 1004.65 1004.13 1003.85 1003.37 1002.57 1001.81 1001.25 1000.37 999.53 999.29 999.29 999.01 998.57 997.85 997.33 997.01 996.33 995.57 994.85 994.37 994.25 994.29 994.37 994.29 994.25 994.33 994.17
1011.69 1011.41 1011.61 1011.73 1011.73 1011.77 1011.97 1012.05 1012.01 1012.13 1012.37 1012.49 1012.65 1012.45 1012.29 1012.25 1012.21 1012.29 1012.41 1012.37 1012.09 1011.81 1011.61 1011.45 1011.21 1011.09 1010.93 1010.85 1010.65 1010.25 1010.01 1009.61 1009.33 1008.93 1008.45 1008.13 1008.01 1007.89 1007.65 1007.21 1006.65 1006.25 1005.93 1005.45 1005.01 1004.73 1004.77 1004.77 1004.49 1004.09 1003.77 1003.17 1002.37 1001.57 1000.49 999.61 999.37 999.09 999.01 998.89 998.33 997.73 997.25 996.77 996.09 995.65 994.97 994.49 994.49 994.05 993.81 993.89 993.69 993.61
1011.85 1011.37 1011.49 1011.73 1011.85 1011.93 1012.13 1012.17 1012.17 1012.29 1012.25 1012.57 1012.65 1012.49 1012.41 1012.33 1012.21 1012.17 1012.13 1012.01 1011.89 1011.89 1011.73 1011.49 1011.21 1011.13 1011.21 1010.89 1010.57 1010.29 1009.93 1009.65 1009.37 1008.93 1008.53 1008.09 1007.89 1007.73 1007.49 1007.09 1006.73 1006.29 1005.93 1005.37 1004.89 1004.49 1004.57 1004.81 1004.61 1004.29 1003.93 1003.49 1002.97 1002.41 1001.81 1000.93 1000.13 999.53 998.97 998.89 998.73 998.13 997.53 997.33 996.85 996.21 995.69 994.89 994.29 994.09 994.05 993.49 993.29 993.57
1011.73 1011.65 1011.73 1011.81 1011.93 1012.01 1012.25 1012.25 1012.25 1012.17 1012.49 1012.65 1012.57 1012.57 1012.57 1012.41 1012.29 1012.21 1012.01 1011.93 1011.97 1012.01 1011.81 1011.49 1011.37 1011.29 1011.01 1010.69 1010.53 1010.17 1009.89 1009.65 1009.33 1008.89 1008.57 1008.21 1007.85 1007.61 1007.29 1007.09 1006.85 1006.37 1005.89 1005.53 1005.13 1004.65 1004.57 1004.77 1004.73 1004.49 1004.13 1003.69 1003.13 1002.33 1001.57 1001.05 1000.45 999.81 999.13 998.73 998.69 998.61 998.21 997.57 997.29 996.93 995.93 995.37 995.01 994.45 994.09 993.73 993.85 993.93
1011.65 1011.77 1011.69 1011.85 1012.01 1012.09 1012.21 1012.21 1012.17 1012.29 1012.65 1012.65 1012.77 1012.85 1012.89 1012.77 1012.69 1012.25 1012.21 1012.33 1012.41 1012.17 1011.77 1011.49 1011.29 1011.17 1010.89 1010.69 1010.49 1010.29 1010.01 1009.65 1009.29 1008.93 1008.61 1008.29 1007.89 1007.61 1007.37 1007.13 1006.57 1006.17 1005.81 1005.29 1004.97 1004.73 1004.61 1004.61 1004.33 1004.13 1003.89 1003.45 1002.89 1002.13 1001.29 1000.85 1000.65 1000.29 999.77 999.09 998.53 998.29 998.09 997.93 997.73 997.37 996.81 996.09 995.33 994.37 993.97 993.61 993.53 993.93
1011.49 1011.61 1011.69 1011.77 1011.97 1012.01 1012.05 1012.13 1012.21 1012.37 1012.57 1012.57 1012.61 1012.53 1012.57 1012.69 1012.45 1012.81 1012.73 1012.61 1012.41 1012.13 1011.77 1011.37 1011.17 1011.05 1010.85 1010.65 1010.45 1010.25 1010.05 1009.69 1009.33 1009.05 1008.73 1008.33 1007.89 1007.45 1007.09 1006.77 1006.41 1006.05 1005.73 1005.37 1005.01 1004.77 1004.37 1004.05 1003.97 1004.05 1003.77 1003.37 1003.05 1002.73 1002.37 1002.17 1001.77 1001.13 1000.49 999.81 999.01 998.41 998.01 997.73 997.65 997.53 997.17 996.49 995.61 994.89 994.13 993.17 993.29 993.61
1011.57 1011.69 1011.69 1011.65 1011.81 1011.97 1011.97 1011.81 1012.25 1012.69 1012.61 1012.57 1012.61 1012.73 1012.61 1012.25 1012.05 1012.17 1011.93 1011.73 1011.81 1011.69 1011.45 1011.33 1011.21 1011.05 1010.89 1010.65 1010.49 1010.29 1010.01 1009.61 1009.41 1009.21 1008.77 1008.37 1007.97 1007.61 1007.17 1006.73 1006.45 1006.13 1005.77 1005.33 1004.89 1004.61 1004.25 1003.97 1003.97 1004.09 1003.85 1003.61 1003.53 1003.33 1003.05 1002.49 1002.09 1001.65 1000.93 1000.21 999.61 998.93 998.21 997.65 997.33 997.05 996.73 996.09 995.89 995.85 995.77 995.05 993.89 993.33
1011.41 1011.57 1011.57 1011.61 1011.85 1012.09 1012.29 1012.37 1012.53 1012.65 1012.73 1012.65 1012.53 1012.61 1012.41 1012.13 1011.93 1011.89 1011.85 1011.81 1011.73 1011.57 1011.53 1011.49 1011.29 1011.09 1010.93 1010.73 1010.53 1010.25 1009.93 1009.77 1009.61 1009.17 1008.77 1008.41 1008.01 1007.65 1007.29 1006.85 1006.53 1006.17 1005.73 1005.33 1005.01 1004.57 1004.21 1003.97 1003.85 1004.13 1004.13 1003.93 1003.81 1003.57 1003.13 1002.49 1002.13 1001.89 1001.29 1000.57 999.85 999.25 998.65 997.97 997.29 996.77 996.33 995.93 995.85 995.89 995.57 995.41 995.09 994.45
1010.81 1010.93 1011.05 1011.25 1011.73 1011.85 1011.93 1012.13 1012.53 1012.57 1012.61 1012.57 1012.49 1012.29 1012.21 1012.17 1012.01 1011.85 1011.73 1011.81 1011.77 1011.73 1011.65 1011.45 1011.33 1011.17 1011.01 1010.81 1010.65 1010.33 1010.05 1009.93 1009.49 1009.01 1008.69 1008.29 1007.97 1007.61 1007.25 1006.89 1006.61 1006.25 1005.81 1005.53 1005.33 1004.81 1004.41 1004.17 1004.05 1004.13 1004.33 1004.17 1003.93 1003.77 1003.33 1002.85 1002.49 1002.05 1001.57 1001.01 1000.37 999.77 999.21 998.65 998.09 997.49 997.09 996.53 996.01 995.81 995.45 994.89 994.33 993.93
Thickness
5718 5716 5715 5713 5711 5712 5712 5711 5711 5709 5708 5707 5705 5703 5700 5695 5692 5691 5692 5693 5695 5700 5699 5697 5696 5695 5690 5687 5685 5683 5682 5681 5680 5680 5682 5682 5682 5682 5681 5680 5679 5679 5678 5679 5679 5679 5679 5680 5680 5680 5681 5681 5683 5684 5685 5687 5689 5692 5694 5697 5700 5703 5707 5711 5715 5719 5723 5727 5731 5735 5738 5741 5743 5745
5714 5713 5712 5711 5710 5710 5709 5708 5708 5706 5704 5703 5702 5701 5700 5696 5691 5688 5688 5689 5693 5695 5695 5695 5694 5692 5689 5686 5684 5682 5680 5678 5677 5676 5677 5678 5678 5678 5678 5677 5677 5676 5676 5677 5677 5677 5677 5677 5678 5678 5679 5680 5681 5682 5683 5684 5686 5688 5691 5694 5697 5700 5704 5707 5712 5716 5720 5724 5728 5732 5735 5738 5741 5744
5711 5709 5708 5707 5707 5707 5706 5705 5704 5703 5701 5700 5699 5699 5697 5694 5692 5689 5685 5685 5691 5693 5691 5692 5692 5690 5687 5685 5683 5681 5679 5677 5674 5673 5673 5674 5674 5673 5674 5674 5674 5674 5674 5674 5674 5675 5675 5675 5675 5675 5676 5677 5678 5679 5681 5682 5684 5686 5688 5691 5694 5697 5701 5704 5708 5712 5716 5721 5725 5729 5732 5736 5739 5742
5708 5706 5705 5704 5704 5703 5702 5701 5700 5699 5698 5698 5697 5695 5694 5692 5690 5689 5684 5681 5686 5691 5690 5689 5690 5688 5685 5683 5680 5678 5677 5675 5672 5670 5669 5669 5669 5669 5671 5672 5672 5672 5671 5671 5671 5671 5672 5672 5672 5672 5673 5674 5675 5676 5677 5679 5681 5683 5685 5688 5691 5694 5697 5701 5705 5708 5712 5717 5722 5726 5730 5733 5737 5741
5705 5703 5702 5701 5702 5701 5699 5698 5697 5696 5696 5695 5694 5692 5691 5690 5688 5686 5682 5678 5680 5686 5689 5688 5687 5686 5683 5680 5678 5675 5673 5672 5670 5669 5668 5667 5666 5666 5668 5669 5670 5670 5669 5668 5668 5667 5668 5668 5668 5669 5669 5671 5672 5673 5674 5676 5678 5680 5682 5685 5688 5691 5694 5698 5702 5705 5710 5714 5718 5723 5727 5731 5735 5739
5701 5700 5699 5698 5699 5698 5697 5695 5694 5695 5695 5693 5690 5689 5688 5686 5686 5685 5681 5677 5675 5677 5682 5684 5682 5682 5680 5676 5675 5673 5670 5669 5668 5666 5665 5665 5663 5663 5664 5666 5667 5667 5665 5665 5664 5664 5665 5664 5665 5666 5667 5667 5668 5670 5672 5673 5675 5678 5680 5683 5685 5689 5692 5696 5700 5703 5708 5712 5715 5720 5725 5729 5733 5736
5698 5697 5696 5695 5695 5696 5694 5693 5693 5693 5692 5689 5687 5686 5686 5683 5683 5683 5680 5676 5673 5672 5674 5677 5677 5677 5676 5674 5672 5671 5669 5667 5665 5663 5662 5662 5661 5660 5661 5662 5662 5662 5661 5661 5660 5660 5661 5661 5661 5661 5663 5663 5665 5667 5669 5670 5673 5675 5677 5681 5684 5687 5690 5694 5698 5701 5705 5709 5714 5718 5722 5726 5731 5734
5695 5694 5693 5692 5693 5693 5692 5691 5691 5690 5688 5686 5685 5683 5683 5682 5680 5680 5678 5676 5674 5671 5669 5671 5672 5671 5670 5670 5670 5668 5666 5665 5663 5662 5660 5659 5658 5657 5657 5657 5657 5657 5657 5657 5657 5657 5657 5658 5658 5658 5658 5660 5661 5663 5665 5668 5670 5672 5675 5678 5681 5685 5688 5692 5696 5700 5703 5708 5712 5716 5720 5724 5728 5732
5694 5692 5691 5691 5691 5690 5689 5688 5687 5687 5685 5684 5683 5681 5681 5680 5678 5677 5676 5674 5673 5670 5667 5666 5667 5666 5665 5664 5665 5664 5662 5661 5661 5660 5658 5656 5655 5654 5654 5653 5652 5652 5653 5654 5655 5655 5655 5655 5656 5656 5657 5657 5658 5660 5663 5665 5668 5671 5673 5676 5679 5682 5686 5690 5694 5697 5701 5705 5709 5714 5718 5722 5726 5730
5692 5690 5688 5689 5688 5687 5687 5686 5685 5684 5683 5682 5681 5680 5679 5678 5676 5674 5673 5672 5670 5667 5665 5663 5661 5660 5660 5658 5657 5659 5659 5657 5655 5654 5654 5653 5651 5650 5650 5650 5649 5648 5649 5651 5652 5652 5653 5652 5653 5654 5655 5655 5656 5658 5661 5663 5666 5669 5672 5674 5678 5681 5684 5688 5692 5695 5699 5703 5707 5711 5716 5720 5725 5728
5689 5688 5688 5687 5686 5686 5685 5685 5683 5681 5680 5679 5679 5678 5677 5676 5674 5670 5668 5667 5666 5663 5662 5660 5658 5656 5655 5652 5651 5654 5655 5653 5650 5648 5646 5646 5646 5646 5645 5645 5645 5645 5645 5647 5648 5648 5650 5650 5651 5652 5653 5655 5655 5657 5659 5662 5664 5667 5670 5673 5676 5679 5683 5686 5689 5693 5696 5700 5705 5709 5713 5718 5723 5727
5687 5687 5687 5687 5687 5686 5684 5683 5682 5680 5679 5678 5676 5676 5675 5672 5669 5666 5664 5662 5662 5660 5658 5656 5655 5652 5650 5648 5647 5648 5648 5646 5645 5645 5642 5640 5641 5640 5640 5640 5640 5640 5641 5643 5645 5646 5647 5648 5649 5651 5653 5654 5655 5656 5658 5660 5663 5665 5668 5672 5675 5677 5681 5684 5687 5691 5694 5698 5702 5706 5710 5715 5720 5725
5685 5685 5686 5686 5686 5684 5683 5681 5679 5677 5675 5673 5672 5672 5671 5668 5665 5663 5659 5657 5657 5656 5653 5651 5649 5647 5644 5644 5642 5641 5641 5639 5639 5640 5638 5636 5636 5635 5634 5636 5637 5637 5638 5640 5643 5643 5642 5643 5646 5648 5650 5652 5653 5654 5656 5659 5663 5666 5667 5668 5671 5674 5677 5681 5684 5688 5692 5695 5700 5704 5708 5713 5717 5722
5682 5682 5683 5684 5683 5680 5679 5677 5674 5673 5671 5669 5667 5667 5666 5664 5661 5658 5655 5652 5652 5651 5649 5647 5644 5641 5639 5639 5637 5637 5638 5637 5636 5635 5632 5630 5631 5630 5628 5630 5633 5635 5635 5636 5639 5641 5638 5639 5644 5645 5646 5649 5650 5652 5655 5658 5661 5663 5664 5664 5666 5670 5674 5678 5681 5685 5689 5693 5698 5701 5706 5710 5715 5720
5676 5677 5678 5679 5677 5673 5672 5672 5671 5670 5668 5665 5663 5662 5661 5659 5656 5653 5650 5649 5647 5646 5646 5644 5640 5636 5634 5634 5633 5633 5635 5634 5631 5629 5626 5625 5625 5623 5621 5623 5627 5630 5631 5632 5634 5638 5636 5636 5641 5644 5644 5646 5648 5649 5652 5655 5657 5659 5661 5662 5663 5667 5671 5675 5679 5683 5686 5690 5696 5700 5704 5708 5712 5717
5671 5671 5671 5672 5672 5669 5667 5666 5666 5667 5665 5662 5659 5659 5657 5654 5651 5649 5646 5645 5643 5641 5641 5640 5636 5633 5631 5631 5629 5628 5629 5628 5625 5623 5621 5620 5619 5617 5616 5618 5622 5626 5627 5627 5630 5636 5635 5633 5636 5642 5643 5644 5646 5647 5649 5651 5653 5655 5658 5660 5662 5665 5669 5673 5677 5681 5686 5689 5693 5698 5702 5706 5710 5715
5667 5667 5667 5667 5667 5666 5664 5660 5660 5662 5662 5658 5654 5653 5653 5651 5649 5648 5644 5641 5639 5638 5636 5635 5633 5630 5628 5627 5626 5625 5623 5621 5619 5618 5616 5615 5615 5614 5614 5616 5619 5622 5622 5622 5626 5633 5634 5631 5632 5639 5642 5642 5642 5643 5645 5647 5649 5651 5654 5658 5662 5664 5667 5672 5676 5680 5685 5689 5692 5697 5701 5705 5709 5712
5664 5665 5664 5663 5661 5661 5660 5658 5657 5658 5657 5655 5651 5650 5651 5650 5648 5646 5643 5638 5635 5634 5632 5629 5628 5627 5625 5623 5622 5621 5619 5616 5614 5613 5612 5611 5611 5611 5613 5615 5617 5619 5619 5619 5622 5629 5632 5628 5629 5635 5638 5638 5637 5637 5639 5641 5643 5647 5651 5656 5661 5665 5667 5672 5676 5680 5684 5688 5692 5696 5700 5704 5707 5711
5663 5663 5661 5659 5658 5657 5657 5655 5655 5654 5653 5651 5649 5648 5647 5646 5644 5642 5641 5638 5634 5631 5629 5626 5625 5624 5621 5619 5617 5616 5614 5611 5610 5610 5609 5608 5608 5608 5611 5614 5616 5618 5620 5620 5620 5625 5629 5627 5626 5630 5632 5630 5630 5631 5631 5633 5637 5641 5648 5654 5660 5665 5669 5673 5676 5681 5684 5688 5691 5695 5699 5702 5705 5708
5663 5662 5660 5658 5656 5655 5654 5652 5649 5647 5646 5645 5643 5641 5641 5639 5638 5637 5637 5635 5632 5628 5625 5622 5620 5618 5616 5613 5611 5609 5607 5606 5606 5606 5606 5605 5604 5605 5607 5611 5614 5618 5621 5621 5619 5620 5624 5623 5622 5625 5626 5622 5623 5625 5625 5627 5633 5638 5644 5652 5660 5666 5670 5674 5678 5681 5685 5687 5690 5693 5697 5700 5704 5707
5663 5661 5660 5657 5655 5653 5651 5647 5643 5641 5639 5637 5637 5635 5634 5632 5631 5631 5631 5630 5627 5624 5620 5616 5614 5612 5610 5608 5607 5605 5604 5602 5601 5599 5600 5601 5602 5603 5604 5607 5613 5617 5619 5620 5617 5613 5616 5619 5617 5617 5618 5616 5616 5618 5620 5625 5629 5635 5643 5651 5659 5667 5671 5675 5679 5682 5685 5686 5688 5692 5696 5699 5702 5704
5661 5658 5656 5654 5652 5649 5645 5640 5636 5633 5631 5631 5631 5629 5628 5626 5624 5624 5625 5625 5624 5620 5616 5613 5611 5609 5608 5607 5606 5604 5602 5601 5598 5595 5597 5600 5601 5602 5602 5604 5610 5615 5618 5617 5612 5607 5610 5614 5610 5607 5608 5612 5614 5613 5615 5622 5627 5633 5643 5653 5659 5667 5672 5676 5679 5682 5684 5685 5687 5690 5694 5697 5699 5700
5656 5652 5649 5647 5645 5643 5638 5632 5629 5627 5625 5626 5626 5623 5621 5619 5618 5619 5619 5618 5615 5612 5610 5609 5608 5607 5607 5606 5605 5605 5604 5601 5599 5597 5598 5599 5598 5599 5602 5603 5605 5610 5615 5615 5607 5601 5604 5606 5604 5598 5594 5602 5614 5615 5611 5618 5626 5632 5641 5651 5658 5666 5671 5674 5678 5681 5683 5684 5686 5689 5693 5694 5696 5699
5651 5647 5644 5640 5636 5633 5630 5625 5622 5620 5618 5617 5618 5617 5616 5614 5612 5612 5611 5608 5604 5603 5602 5603 5603 5604 5604 5605 5605 5606 5605 5603 5602 5601 5600 5600 5598 5598 5600 5601 5602 5605 5611 5611 5602 5596 5597 5597 5597 5594 5587 5588 5605 5615 5613 5616 5625 5631 5637 5646 5655 5665 5670 5673 5677 5680 5682 5684 5686 5689 5692 5693 5694 5697
5648 5645 5641 5637 5629 5624 5622 5619 5616 5614 5610 5609 5610 5610 5609 5606 5602 5600 5600 5599 5598 5598 5598 5599 5600 5601 5602 5602 5603 5604 5603 5602 5602 5601 5600 5598 5597 5596 5596 5598 5599 5602 5606 5605 5595 5588 5589 5589 5588 5590 5588 5585 5593 5607 5614 5617 5623 5629 5636 5644 5652 5661 5667 5671 5677 5681 5683 5685 5688 5689 5693 5693 5693 5696
5644 5640 5638 5632 5623 5618 5615 5612 5609 5606 5603 5601 5602 5602 5600 5596 5593 5591 5591 5593 5594 5595 5596 5596 5596 5596 5597 5598 5599 5598 5598 5598 5597 5596 5595 5594 5593 5593 5592 5592 5593 5596 5601 5602 5593 5583 5583 5586 5584 5583 5585 5587 5591 5600 5609 5617 5624 5630 5636 5643 5650 5657 5662 5667 5675 5683 5687 5690 5691 5692 5693 5692 5692 5694
5640 5636 5632 5625 5617 5612 5608 5605 5602 5599 5597 5596 5596 5594 5591 5589 5585 5585 5587 5590 5591 5591 5591 5590 5590 5591 5592 5593 5594 5593 5592 5592 5591 5589 5589 5589 5589 5589 5590 5589 5588 5591 5594 5595 5592 5585 5582 5585 5585 5581 5581 5585 5590 5596 5604 5614 5623 5629 5634 5641 5648 5654 5660 5666 5675 5685 5692 5696 5696 5694 5691 5690 5691 5693
5634 5630 5625 5618 5611 5606 5602 5598 5595 5593 5591 5591 5590 5587 5585 5582 5581 5582 5585 5587 5587 5586 5586 5586 5587 5589 5590 5589 5588 5588 5587 5586 5585 5585 5586 5587 5587 5587 5588 5588 5587 5588 5589 5589 5589 5587 5582 5582 5583 5581 5580 5582 5587 5593 5602 5611 5619 5625 5631 5639 5646 5653 5662 5670 5678 5686 5692 5697 5698 5696 5692 5691 5691 5691
5625 5620 5615 5610 5604 5599 5595 5591 5590 5589 5588 5586 5584 5582 5580 5579 5581 5582 5583 5583 5582 5582 5583 5584 5584 5584 5585 5584 5584 5583 5583 5581 5582 5583 5585 5586 5586 5587 5588 5588 5587 5587 5588 5587 5587 5585 5583 5580 5579 5579 5580 5583 5586 5592 5600 5608 5616 5623 5628 5635 5644 5654 5664 5673 5679 5684 5690 5695 5698 5697 5697 5695 5693 5692
5615 5610 5605 5601 5597 5593 5590 5588 5589 5590 5588 5583 5580 5578 5577 5578 5581 5582 5580 5578 5578 5578 5579 5580 5580 5580 5580 5581 5580 5579 5578 5579 5579 5581 5582 5583 5585 5586 5587 5588 5588 5588 5588 5588 5587 5585 5582 5580 5579 5578 5581 5586 5590 5595 5601 5608 5616 5625 5632 5637 5645 5654 5664 5672 5678 5683 5688 5693 5694 5695 5697 5697 5695 5694
5610 5604 5599 5596 5593 5591 5589 5587 5587 5587 5585 5581 5580 5579 5578 5578 5579 5577 5575 5574 5574 5574 5574 5575 5575 5576 5576 5576 5576 5576 5576 5577 5578 5578 5579 5580 5582 5584 5585 5586 5587 5588 5590 5590 5588 5585 5581 5580 5579 5578 5581 5587 5594 5600 5605 5610 5616 5624 5632 5638 5643 5650 5660 5670 5676 5682 5686 5688 5689 5690 5692 5694 5694 5693
5608 5601 5595 5592 5591 5590 5589 5588 5587 5585 5583 5580 5579 5578 5577 5577 5576 5573 5572 5571 5571 5571 5571 5571 5571 5571 5571 5571 5573 5573 5574 5575 5576 5576 5577 5578 5579 5581 5582 5583 5585 5587 5590 5590 5589 5586 5583 5581 5580 5579 5582 5589 5596 5600 5606 5611 5616 5622 5629 5636 5642 5648 5657 5665 5671 5676 5680 5681 5682 5684 5687 5691 5692 5693
5605 5600 5595 5593 5593 5591 5589 5589 5589 5587 5583 5580 5577 5575 5573 5572 5573 5572 5571 5570 5570 5569 5568 5567 5567 5568 5568 5569 5570 5571 5572 5572 5573 5573 5574 5574 5577 5578 5580 5581 5582 5584 5586 5587 5587 5587 5586 5583 5581 5581 5586 5592 5596 5599 5603 5610 5615 5620 5625 5632 5638 5645 5655 5662 5667 5672 5675 5674 5675 5679 5682 5687 5691 5693
5600 5599 5596 5594 5593 5591 5588 5588 5586 5584 5581 5578 5575 5573 5572 5570 5570 5570 5568 5568 5568 5566 5564 5564 5564 5565 5565 5566 5567 5568 5569 5570 5570 5571 5573 5574 5575 5577 5578 5579 5580 5580 5581 5582 5583 5583 5581 5580 5580 5583 5588 5594 5599 5601 5603 5606 5612 5617 5623 5628 5633 5641 5651 5658 5664 5669 5672 5672 5672 5674 5677 5681 5688 5692
5597 5596 5593 5591 5590 5589 5586 5585 5583 5579 5576 5574 5571 5570 5570 5569 5569 5567 5566 5565 5563 5561 5561 5562 5563 5563 5563 5563 5564 5565 5566 5567 5568 5570 5572 5573 5574 5575 5576 5576 5577 5577 5577 5579 5580 5578 5576 5575 5577 5581 5587 5593 5599 5603 5604 5606 5609 5615 5620 5624 5629 5637 5645 5653 5659 5665 5669 5671 5671 5673 5673 5676 5682 5690
5595 5594 5590 5588 5587 5585 5582 5581 5579 5574 5571 5570 5568 5566 5566 5565 5565 5565 5562 5559 5557 5557 5559 5559 5559 5560 5560 5560 5561 5562 5563 5564 5566 5568 5569 5570 5571 5572 5572 5574 5574 5575 5575 5576 5577 5575 5572 5571 5572 5576 5580 5587 5594 5598 5603 5606 5609 5612 5616 5620 5626 5633 5640 5647 5654 5661 5666 5669 5671 5673 5675 5676 5680 5687
5592 5591 5588 5585 5584 5582 5579 5578 5575 5571 5567 5565 5563 5562 5562 5561 5561 5560 5557 5554 5554 5555 5556 5556 5557 5558 5558 5558 5558 5559 5560 5562 5563 5565 5567 5568 5568 5568 5569 5571 5572 5573 5573 5574 5574 5573 5569 5567 5568 5570 5573 5579 5586 5592 5599 5606 5608 5610 5612 5617 5623 5630 5636 5642 5650 5658 5665 5668 5672 5676 5680 5682 5684 5690
5588 5588 5585 5582 5580 5578 5574 5572 5570 5566 5563 5560 5558 5558 5558 5558 5557 5556 5554 5552 5554 5555 5555 5555 5555 5555 5555 5555 5555 5556 5558 5559 5561 5563 5565 5566 5566 5565 5565 5568 5570 5571 5571 5572 5573 5572 5568 5564 5564 5565 5567 5572 5579 5585 5593 5601 5605 5608 5611 5613 5618 5625 5632 5637 5644 5651 5658 5664 5670 5676 5681 5685 5689 5694
5582 5583 5581 5577 5575 5573 5569 5566 5564 5562 5559 5556 5554 5554 5554 5554 5553 5553 5552 5552 5552 5551 5551 5552 5552 5552 5551 5552 5552 5553 5555 5556 5557 5560 5562 5564 5564 5564 5564 5566 5567 5568 5569 5570 5571 5571 5568 5563 5561 5562 5563 5567 5572 5577 5584 5591 5598 5604 5609 5611 5614 5619 5626 5633 5637 5644 5651 5659 5665 5672 5678 5683 5688 5691
5578 5577 5576 5573 5571 5568 5564 5561 5560 5558 5554 5551 5550 5550 5549 5549 5549 5549 5550 5549 5548 5547 5547 5549 5549 5548 5549 5549 5550 5551 5552 5554 5555 5557 5559 5561 5562 5563 5563 5564 5565 5566 5567 5568 5569 5570 5567 5562 5560 5560 5561 5563 5568 5574 5581 5587 5593 5599 5605 5610 5612 5615 5620 5625 5630 5636 5644 5652 5659 5666 5673 5679 5684 5686
5575 5573 5571 5569 5566 5563 5560 5558 5556 5553 5550 5548 5547 5546 5544 5544 5544 5544 5544 5542 5541 5542 5544 5545 5546 5545 5546 5547 5547 5548 5549 5551 5553 5555 5556 5558 5560 5561 5561 5562 5564 5566 5567 5567 5568 5567 5565 5563 5561 5560 5561 5563 5567 5573 5579 5583 5586 5591 5597 5604 5610 5614 5617 5621 5625 5629 5636 5645 5655 5665 5674 5680 5683 5683
5572 5569 5567 5565 5561 5558 5557 5555 5551 5548 5546 5545 5544 5543 5542 5541 5541 5539 5539 5539 5539 5539 5541 5543 5544 5543 5543 5544 5545 5545 5546 5547 5549 5551 5552 5555 5557 5559 5560 5562 5563 5565 5565 5566 5566 5566 5566 5565 5564 5561 5560 5562 5564 5567 5571 5573 5577 5582 5589 5596 5604 5611 5615 5620 5623 5626 5632 5641 5649 5657 5668 5676 5682 5683
5567 5564 5562 5561 5557 5554 5552 5551 5547 5543 5541 5540 5539 5538 5538 5540 5540 5539 5539 5540 5540 5539 5540 5540 5540 5540 5541 5542 5541 5542 5544 5545 5546 5547 5549 5552 5554 5556 5558 5560 5561 5562 5564 5565 5566 5566 5567 5567 5564 5560 5559 5560 5559 5560 5563 5567 5571 5576 5583 5590 5597 5604 5612 5619 5623 5626 5632 5638 5642 5645 5653 5663 5674 5681
5564 5560 5558 5556 5552 5549 5546 5544 5542 5538 5537 5537 5536 5535 5536 5538 5538 5538 5538 5537 5537 5537 5537 5536 5536 5537 5538 5538 5539 5540 5541 5542 5542 5544 5547 5550 5551 5554 5555 5557 5559 5560 5562 5563 5564 5565 5566 5566 5564 5559 5557 5556 5555 5556 5559 5564 5568 5571 5577 5585 5592 5599 5606 5613 5620 5625 5631 5637 5640 5642 5646 5654 5664 5674
5562 5559 5558 5554 5550 5547 5544 5540 5538 5535 5534 5533 5534 5534 5534 5535 5535 5535 5535 5535 5534 5533 5532 5532 5533 5534 5534 5534 5535 5536 5538 5538 5540 5543 5545 5547 5549 5551 5553 5554 5555 5557 5559 5561 5561 5562 5563 5564 5562 5559 5555 5554 5554 5554 5556 5560 5564 5567 5572 5579 5585 5591 5598 5605 5611 5617 5624 5629 5634 5638 5643 5651 5660 5667